Terminal Aerodrome Forecast
Issued by NWS Twin Cities, MN

Home | Current Version | Previous Version | Graphics & Text | Print | Product List | Glossary On
Versions: 1 2 3 4 5 6 7 8 9 10 11 12 13 14 15 16
000
FTUS43 KMPX 201700
TAFSTC
TAF
KSTC 201720Z 2018/2118 30012G20KT P6SM SCT050
      TEMPO 2021/2023 2SM TSRA OVC030CB
     FM210300 31012G19KT P6SM BKN050
     FM210600 31009KT P6SM SCT100
      TEMPO 2111/2114 BKN020=

USA.gov is the U.S. government's official web portal to all federal, state and local government web resources and services.